STARLINK-5685, 55477

Orbit data source: Space-Track

STARLINK-5685, 55477 is a payload satellite owned by SpaceX/Seattle (US) in LEO that was launched on Thu, 02 Feb 2023 UTC via an FALCON 9 launch vehicle from the Air Force Eastern Test Range (AFETR). Payload-class satellites include a variety of spacecraft equipped with specific instruments for various scientific and technological missions. These include communications satellites like Starlink; space stations such as the ISS; scientific satellites like the Hubble; Earth observation satellites from companies like Planet Labs, Umbra, and HawkEye 360; GPS; miniature CubeSats for education and research; and military/defense satellites.

Loading next visibility...
Identifier
55477, 2023-015AE
Orbit
LEO
Country
Flag of USUS
Related business
Manufacturer
SpaceX/Seattle
Mission
Operational Commercial Communications
Bus & Motor
STARLINK, Unknown motor
Mass
305 kg wet, ~290 kg dry
Launch date (UTC)
2023-02-02 (3 years ago)
Launch vehicle
FALCON 9
Launch site
Air Force Eastern Test Range (AFETR)
Object type
Payload
Rocket body
Debris
Shape & HBR
Box + 1 Pan, 10.1 m
Radar Cross Section
13.562 m², Large (>1 m²)

Expand to show TLE details & history
Last TLE update: 17 hours ago

TLE from 17 hours ago
0 STARLINK-5685
1 55477U 23015AE  25310.14553435 -.00000202  00000-0  13309-6 0  9997
2 55477  43.0037 264.8087 0001012 266.9661  93.1066 15.02537699152316
Epoch: 2025-11-06T03:29Z
TLE epoch observation values (Epoch: 2025-11-06T03:29:34.167Z)
Latitude
-0°
Longitude
166.80828°
Altitude
558.891 km
Speed
7.584 km/s
True Right ascension
17h 39m 14s
True Declination
0° 00' 00"
Sunlit
Object was in daylight at epoch
Visualization orbit readout
Latitude
Unknown
Longitude
Unknown
Altitude
Unknown
Speed
Unknown
Apparent Right ascension
Unknown
Apparent Declination
Unknown
Sunlit
N/A
Visualization observer readout
Local Sidereal Time
16:34:18
Azimuth
Unknown
Elevation
Unknown
Doppler factor
Unknown
Orbital elements
Apogee altitude
561.7 km
Perigee altitude
560.295 km
Semi-major axis
6,939.135 km
Eccentricity
0.0001
Inclination
43.0037°
RAAN
264.8087°
Arg. of periapsis
266.9661°
True anomaly
93.11818°
Mean anomaly
93.1066°
Eccentric anomaly
93.11239°
Mean motion
3.75479 °/min
Orbital period
95.88 mins
BSTAR
1.3309e-7
Loading maneuver chart data...
Computing Atmospheric mass density...
Loading historical data...
Loading historical data...
Loading historical data...
Loading historical data...
Loading historical data...
Loading historical data...
Loading historical data...

Documentation

Showing up to 5 results
|